Location: Arlington
(40.6323°N, 74.1651°W)
Time: 06:08:17
(UTC+00:00)

Cosmos 2297 Rocket - Pass Details

Date: 22 November 2019
Orbit: 840 x 843 km, 71.0° (Epoch: 05 December)

Event Time Altitude Azimuth Distance (km) Brightness Sun altitude
Rises 21:58:50 0° 330° (NNW) 3,406 5.5 -5.1°
Reaches altitude 10° 22:01:22 10° 324° (NW) 2,467 4.8 -5.6°
Maximum altitude 22:06:42 44° 254° (WSW) 1,155 3.6 -6.5°
Drops below altitude 10° 22:12:00 10° 183° (S) 2,453 4.9 -7.4°
Sets 22:14:32 0° 177° (S) 3,384 5.6 -7.9°
